Cleveland Rgnl Jetp, Clevelan, TN

6:56 PM EDT on March 24, 2017 (GMT -0400)
Cleveland Rgnl Jetp, Clevelan

Weather History for KRZR - February, 2014

Change the Weather History Date:

Wednesday, February 19, 2014

  Actual Average (KMMI) Record (KMMI)
Temperature  
Mean Temperature 64 °F -  
Max Temperature 71 °F 52 °F 71 °F (2014)
Min Temperature 57 °F 31 °F 1 °F (2015)
Degree Days  
Heating Degree Days 1    
Growing Degree Days 14 (Base 50)    
Moisture  
Dew Point 53 °F    
Average Humidity 70    
Maximum Humidity 94    
Minimum Humidity 38    
Precipitation  
Precipitation 0.00 in - - ()
Sea Level Pressure  
Sea Level Pressure 30.00 in    
Wind  
Wind Speed 9 mph (SSW)    
Max Wind Speed 16 mph    
Max Gust Speed -    
Visibility 10 miles    
Events      
Averages and records for this station are not official NWS values.
T = Trace of Precipitation, MM = Missing Value Source: NWS Daily Summary

Daily Weather History Graph

Daily Weather History Graph

Search for Another Location

Airport or City:

Trip Planner

Search our weather history database for the weather conditions in past years. The results will help you decide how hot, cold, wet, or windy it might be!

Date:

Astronomy

Feb. 19, 2014 Rise Set
Actual Time 7:20 AM EST 6:25 PM EST
Civil Twilight 6:55 AM EST 6:51 PM EST
Nautical Twilight 6:25 AM EST 7:20 PM EST
Astronomical Twilight 5:56 AM EST 7:50 PM EST
Moon 11:05 PM EST (2/19) 9:37 AM EST (2/19)
Length of Visible Light 11h 56m
Length of Day
11h 04m
Waning Gibbous, 80% of the Moon is Illuminated
Feb 19
Waning Gibbous
Feb 22
Last Quarter
Mar 1
New
Mar 8
First Quarter
Mar 16
Full

Hourly Weather History & Observations

Time (EST) Temp. Dew Point Humidity Pressure Visibility Wind Dir Wind Speed Gust Speed Precip Events Conditions
12:55 AM 57.2 °F 53.6 °F 88% 29.99 in 10.0 mi SW 10.4 mph - N/A   Overcast
1:15 AM 57.2 °F 53.6 °F 88% 29.99 in 10.0 mi WSW 5.8 mph - N/A   Overcast
1:35 AM 57.2 °F 53.6 °F 88% 29.98 in 9.0 mi SSW 5.8 mph - N/A   Overcast
1:55 AM 57.2 °F 55.4 °F 94% 29.97 in 10.0 mi SSW 5.8 mph - N/A   Overcast
2:15 AM 57.2 °F 55.4 °F 94% 29.97 in 10.0 mi SSW 6.9 mph - N/A   Overcast
2:35 AM 59.0 °F 55.4 °F 88% 29.96 in 10.0 mi South 9.2 mph - N/A   Mostly Cloudy
2:55 AM 59.0 °F 55.4 °F 88% 29.95 in 10.0 mi SSW 8.1 mph - N/A   Overcast
3:15 AM 60.8 °F 55.4 °F 82% 29.95 in 10.0 mi SSW 9.2 mph - N/A   Overcast
3:35 AM 60.8 °F 55.4 °F 82% 29.94 in 10.0 mi South 12.7 mph - N/A   Overcast
3:55 AM 60.8 °F 55.4 °F 82% 29.93 in 10.0 mi SSW 12.7 mph - N/A   Overcast
4:15 AM 60.8 °F 55.4 °F 82% 29.92 in 10.0 mi South 16.1 mph - N/A   Mostly Cloudy
4:35 AM 59.0 °F 55.4 °F 88% 29.93 in 5.0 mi SSW 11.5 mph - N/A   Overcast
4:55 AM 60.8 °F 55.4 °F 82% 29.94 in 10.0 mi SSW 11.5 mph - N/A   Overcast
5:15 AM 60.8 °F 55.4 °F 82% 29.93 in 10.0 mi SSW 10.4 mph - N/A   Overcast
5:35 AM 60.8 °F 55.4 °F 82% 29.93 in 10.0 mi South 9.2 mph - N/A   Overcast
5:55 AM 60.8 °F 55.4 °F 82% 29.94 in 10.0 mi SSW 12.7 mph - N/A   Overcast
6:15 AM 60.8 °F 55.4 °F 82% 29.93 in 10.0 mi SSW 10.4 mph - N/A   Overcast
6:35 AM 60.8 °F 55.4 °F 82% 29.95 in 10.0 mi SSW 10.4 mph - N/A   Overcast
6:55 AM 60.8 °F 55.4 °F 82% 29.96 in 10.0 mi SSW 10.4 mph - N/A   Overcast
7:15 AM 60.8 °F 55.4 °F 82% 29.97 in 10.0 mi SSW 9.2 mph - N/A   Overcast
7:35 AM 60.8 °F 55.4 °F 82% 29.98 in 10.0 mi SSW 6.9 mph - N/A   Overcast
7:55 AM 60.8 °F 55.4 °F 82% 29.98 in 10.0 mi SSW 5.8 mph - N/A   Overcast
8:15 AM 60.8 °F 55.4 °F 82% 29.99 in 10.0 mi SSW 8.1 mph - N/A   Overcast
8:35 AM 60.8 °F 55.4 °F 82% 29.99 in 10.0 mi SSW 10.4 mph - N/A   Mostly Cloudy
8:55 AM 62.6 °F 55.4 °F 77% 29.99 in 10.0 mi SSW 9.2 mph - N/A   Mostly Cloudy
9:15 AM 62.6 °F 55.4 °F 77% 30.00 in 10.0 mi SSW 8.1 mph - N/A   Overcast
9:35 AM 64.4 °F 55.4 °F 73% 30.00 in 10.0 mi SSW 9.2 mph - N/A   Mostly Cloudy
9:55 AM 64.4 °F 55.4 °F 73% 30.00 in 10.0 mi SSW 9.2 mph - N/A   Scattered Clouds
10:15 AM 64.4 °F 55.4 °F 73% 30.01 in 10.0 mi SW 12.7 mph - N/A   Mostly Cloudy
10:35 AM 64.4 °F 55.4 °F 73% 30.01 in 10.0 mi SW 9.2 mph - N/A   Mostly Cloudy
10:55 AM 66.2 °F 55.4 °F 68% 30.01 in 10.0 mi SW 10.4 mph - N/A   Scattered Clouds
11:15 AM 68.0 °F 55.4 °F 64% 30.02 in 10.0 mi SW 13.8 mph - N/A   Scattered Clouds
11:35 AM 68.0 °F 53.6 °F 60% 30.02 in 10.0 mi SW 15.0 mph - N/A   Mostly Cloudy
11:55 AM 68.0 °F 53.6 °F 60% 30.03 in 10.0 mi WSW 11.5 mph - N/A   Mostly Cloudy
12:15 PM 68.0 °F 51.8 °F 56% 30.03 in 10.0 mi WSW 10.4 mph - N/A   Mostly Cloudy
12:35 PM 68.0 °F 51.8 °F 56% 30.02 in 10.0 mi West 6.9 mph - N/A   Overcast
12:55 PM 71.6 °F 50.0 °F 46% 30.02 in 10.0 mi Variable 6.9 mph - N/A   Mostly Cloudy
1:15 PM 69.8 °F 50.0 °F 49% 30.01 in 10.0 mi NW 6.9 mph - N/A   Scattered Clouds
1:35 PM 71.6 °F 48.2 °F 43% 30.00 in 10.0 mi NW 8.1 mph - N/A   Scattered Clouds
1:55 PM 71.6 °F 46.4 °F 41% 30.00 in 10.0 mi West 5.8 mph - N/A   Scattered Clouds
2:15 PM 71.6 °F 46.4 °F 41% 29.99 in 10.0 mi WSW 12.7 mph - N/A   Clear
2:35 PM 71.6 °F 46.4 °F 41% 29.99 in 10.0 mi SW 6.9 mph - N/A   Clear
2:55 PM 71.6 °F 44.6 °F 38% 29.98 in 10.0 mi SW 12.7 mph - N/A   Clear
3:15 PM 71.6 °F 46.4 °F 41% 29.98 in 10.0 mi WSW 10.4 mph - N/A   Clear
3:35 PM 71.6 °F 46.4 °F 41% 29.98 in 10.0 mi SW 8.1 mph - N/A   Clear
3:55 PM 71.6 °F 44.6 °F 38% 29.98 in 10.0 mi Variable 4.6 mph - N/A   Clear
4:15 PM 69.8 °F 48.2 °F 46% 29.98 in 10.0 mi SW 8.1 mph - N/A   Partly Cloudy
4:35 PM 69.8 °F 46.4 °F 43% 29.99 in 10.0 mi SW 11.5 mph - N/A   Clear
4:55 PM 69.8 °F 51.8 °F 53% 30.00 in 10.0 mi South 6.9 mph - N/A   Clear
5:15 PM 69.8 °F 51.8 °F 53% 30.01 in 10.0 mi South 10.4 mph - N/A   Scattered Clouds
5:35 PM 68.0 °F 51.8 °F 56% 30.01 in 10.0 mi South 6.9 mph - N/A   Partly Cloudy
5:55 PM 66.2 °F 53.6 °F 64% 30.01 in 10.0 mi South 6.9 mph - N/A   Clear
6:15 PM 66.2 °F 53.6 °F 64% 30.02 in 10.0 mi South 6.9 mph - N/A   Clear
6:35 PM 64.4 °F 53.6 °F 68% 30.03 in 10.0 mi South 8.1 mph - N/A   Clear
6:55 PM 64.4 °F 53.6 °F 68% 30.03 in 10.0 mi South 6.9 mph - N/A   Clear
7:15 PM 64.4 °F 53.6 °F 68% 30.04 in 10.0 mi South 4.6 mph - N/A   Partly Cloudy
7:35 PM 62.6 °F 53.6 °F 72% 30.05 in 10.0 mi South 5.8 mph - N/A   Partly Cloudy
7:55 PM 62.6 °F 53.6 °F 72% 30.04 in 10.0 mi South 5.8 mph - N/A   Scattered Clouds
8:15 PM 62.6 °F 53.6 °F 72% 30.04 in 10.0 mi South 5.8 mph - N/A   Mostly Cloudy
8:35 PM 62.6 °F 53.6 °F 72% 30.04 in 10.0 mi South 6.9 mph - N/A   Mostly Cloudy
8:55 PM 62.6 °F 53.6 °F 72% 30.04 in 10.0 mi South 6.9 mph - N/A   Partly Cloudy
9:15 PM 60.8 °F 53.6 °F 77% 30.04 in 10.0 mi South 6.9 mph - N/A   Clear
9:35 PM 60.8 °F 53.6 °F 77% 30.05 in 10.0 mi South 4.6 mph - N/A   Scattered Clouds
9:55 PM 60.8 °F 53.6 °F 77% 30.05 in 10.0 mi Calm Calm - N/A   Overcast
10:15 PM 59.0 °F 53.6 °F 82% 30.05 in 10.0 mi Calm Calm - N/A   Mostly Cloudy
10:35 PM 59.0 °F 53.6 °F 82% 30.04 in 10.0 mi Calm Calm - N/A   Scattered Clouds
10:55 PM 57.2 °F 53.6 °F 88% 30.04 in 10.0 mi SSW 4.6 mph - N/A   Partly Cloudy
11:35 PM 57.2 °F 53.6 °F 88% 30.02 in 10.0 mi Calm Calm - N/A   Mostly Cloudy
11:55 PM 57.2 °F 53.6 °F 88% 30.02 in 10.0 mi Calm Calm - N/A   Mostly Cloudy